SENTINEL-1A

Last updated on Mon Sep 07 2026 00:02:45 GMT+0000 (Coordinated Universal Time)

1 39634U 14016A 26249.61446312 .00000089 00000+0 28306-4 0 9996 2 39634 98.1598 255.8763 0001424 83.1968 276.9394 14.59802501661894
UTC large
Height (km)
Speed (km/s)
/
Latitude / Longitude
Inclination (degrees)
Orbital Period (minutes)
Azimuth
Elevation
Range (km)
Doppler Factor

Next 0 passes for location: London (51.5072 / 0.1276)

No passes found over London.
SENTINEL-1A